[Date Prev][Date Next][Thread Prev][Thread Next] - [Date Index][Thread Index][Author Index]
2 Line ISS Keps 12-15
- Subject: [sarex] 2 Line ISS Keps 12-15
- From: "Dave Larsen PhD" <doc@xxxxxxxxxxx>
- Date: Mon, 15 Dec 2003 01:50:16 -0800
ISS
1 25544U 98067A 03349.14814815 .00011339 00000-0 11578-3 0 8936
2 25544 51.6283 186.9620 0005994 250.2014 253.0604 15.65586236289297
----
Via the sarex mailing list at AMSAT.ORG courtesy of AMSAT-NA.
To unsubscribe, send "unsubscribe sarex" to Majordomo@amsat.org
AMSAT Home